SL-14 DEB, 45270

Orbit data source: Space-Track

SL-14 DEB, 45270 is space debris in LEO originally from a launch on Thu, 15 Aug 1991 UTC launched from the Plesetsk Missile And Space Complex (PKMTR). Debris objects in space refer to the collection of defunct objects orbiting the Earth. Examples of debris include non-operational satellites, rocket bodies, and fragments generated from explosions, collisions, or faulty payload assembly.

Loading next visibility...
Identifier
45270, 1991-056G
Orbit
LEO
Country
Flag of CISCIS
Related business
Manufacturer
Unknown
Mission
Spacecraft
Bus & Motor
Unknown
Mass
Unknown
Launch date (UTC)
1991-08-15 (34 years ago)
Launch vehicle
Unknown
Launch site
Plesetsk Missile And Space Complex (PKMTR)
Object type
Payload
Rocket body
Debris
Shape & HBR
Unknown shape, 0.1 m
Radar Cross Section
Small (<0.1 m²)

Expand to show TLE details & history
Last TLE update: 11 hours ago

TLE from 11 hours ago
0 SL-14 DEB
1 45270U 91056G   25312.87390042  .00000267  00000-0  61122-3 0  9995
2 45270  82.5645 284.4441 0030587 238.0973 121.7176 13.22361373276935
Epoch: 2025-11-08T20:58Z
TLE epoch observation values (Epoch: 2025-11-08T20:58:24.996Z)
Latitude
-0.00002°
Longitude
-78.45731°
Altitude
1,190.729 km
Speed
7.253 km/s
True Right ascension
18h 57m 46s
True Declination
0° 00' 00"
Sunlit
Object was in daylight at epoch
Visualization orbit readout
Latitude
Unknown
Longitude
Unknown
Altitude
Unknown
Speed
Unknown
Apparent Right ascension
Unknown
Apparent Declination
Unknown
Sunlit
N/A
Visualization observer readout
Local Sidereal Time
03:44:45
Azimuth
Unknown
Elevation
Unknown
Doppler factor
Unknown
Orbital elements
Apogee altitude
1,196.047 km
Perigee altitude
1,149.854 km
Semi-major axis
7,551.087 km
Eccentricity
0.00306
Inclination
82.5645°
RAAN
284.4441°
Arg. of periapsis
238.0973°
True anomaly
122.01515°
Mean anomaly
121.7176°
Eccentric anomaly
121.86644°
Mean motion
3.30772 °/min
Orbital period
108.84 mins
BSTAR
0.00061122
Loading maneuver chart data...
Computing Atmospheric mass density...
Loading historical data...
Loading historical data...
Loading historical data...
Loading historical data...
Loading historical data...
Loading historical data...
Loading historical data...

Documentation

Showing up to 5 results
|